Home > Time Zones > World Clock > Weather > Ghana > Accra > Past weeks

Flag for Ghana Weather past 2 weeks in Accra, Ghana

Now
82 °F

Passing clouds.


Feels Like: 92 °F
Forecast: N/A
Wind: 7 mph from South

Location: Accra Airport

Current Time: Mar 1, 2015 at 9:55:32 PM

Latest Report: Mar 1, 2015 at 9:00 PM


Visibility: N/A

Pressure: 29.86 "Hg

Humidity: 89%

Dew point: 79 °F

Location of AccraLocation

Historic Weather in Accra — Graph

°F

Accra temperature yesterday

Maximum temperature yesterday: 88 °F (at 11:00 AM)
Minimum temperature yesterday: 79 °F (at 7:00 AM)
Average temperature yesterday: 84 °F

Past Weeks' High & Low Weather Summary

 TemperatureHumidityPressure
High93 °F (Mar 1, 11:51 AM)100% (Feb 18, 10:00 PM)29.95 "Hg (Feb 18, 10:00 PM)
Low73 °F (Feb 18, 10:00 PM)55% (Feb 22, 12:00 PM)29.74 "Hg (Feb 17, 3:00 PM)
Average83 °F81%29.84 "Hg
* Reported Feb 14 8:00 PM — Mar 1 8:00 PM, Accra, Weather by CustomWeather, © 2015

Note: Actual official high and low records may vary slightly from our data, if they occured in-between our weather recording intervals... More about our weather records

Advertising

Accra weather history for previous 24 hours

 ConditionsComfort  
Time TempWeatherWind HumidityBarometerVisibility
8:00 PM
Sun, Mar 1
82 °FPassing clouds.8 mph89%29.83 "HgN/A
6:53 PM82 °FPassing clouds.12 mph89%29.80 "HgN/A
5:54 PM84 °FSunny.15 mph84%29.77 "Hg10 mi
4:53 PM86 °FSunny.14 mph75%29.77 "Hg10 mi
4:00 PM86 °FPassing clouds.14 mph75%29.74 "HgN/A
2:48 PM88 °FPassing clouds.13 mph70%29.77 "HgN/A
1:57 PM90 °FPassing clouds.12 mph67%29.77 "HgN/A
1:00 PM90 °FScattered clouds.12 mph67%29.80 "HgN/A
11:51 AM93 °FScattered clouds.6 mph56%29.86 "HgN/A
11:02 AM88 °FScattered clouds.8 mph66%29.89 "HgN/A
9:48 AM86 °FScattered clouds.8 mph75%29.92 "HgN/A
8:53 AM82 °FPassing clouds.10 mph84%29.92 "HgN/A
8:01 AM81 °FPassing clouds.9 mph89%29.89 "HgN/A
7:00 AM79 °FSunny.7 mph94%29.86 "Hg10 mi
6:00 AM79 °FClear.8 mph94%29.86 "Hg10 mi
5:00 AM79 °FPassing clouds.7 mph94%29.83 "HgN/A
4:00 AM79 °FPassing clouds.8 mph94%29.83 "HgN/A
3:00 AM79 °FPassing clouds.8 mph94%29.83 "HgN/A
2:00 AM81 °FPassing clouds.7 mph89%29.86 "HgN/A
1:00 AM82 °FPassing clouds.6 mph89%29.86 "HgN/A
12:00 AM82 °FPassing clouds.7 mph89%29.89 "HgN/A
11:00 PM
Sat, Feb 28
82 °FPassing clouds.7 mph84%29.92 "HgN/A
10:00 PM82 °FClear.6 mph84%29.92 "Hg10 mi
9:00 PM82 °FClear.7 mph84%29.89 "Hg10 mi
Weather by CustomWeather, © 2015

See weather overviewHow to use our weather pages